[Iaude] MPEC F85: 2024 ES5 [a=2.17,e=0.56,i=3.9,H=25.3]

mpec at cfa.harvard.edu mpec at cfa.harvard.edu
Tue Mar 26 07:52:34 EDT 2024


M.P.E.C. 2024-F85                                Issued 2024 March 26, 11:51 UT

     The Minor Planet Electronic Circulars contain information on unusual
         minor planets, routine data on comets and natural satellites,
         and occasional editorial announcements.  They are published
    on behalf of Division F of the International Astronomical Union by the
          Minor Planet Center, Smithsonian Astrophysical Observatory,
                          Cambridge, MA 02138, U.S.A.
			  
             Prepared using the Tamkin Foundation Computer Network

                              MPC at CFA.HARVARD.EDU
            URL https://www.minorplanetcenter.net/    ISSN 1523-6714

                                    2024 ES5                                    


Observations:
     K24E05S* C2024 03 11.41312810 12 30.589+28 21 59.87         21.52GVEF085V00
     K24E05S  C2024 03 11.41875010 12 30.366+28 22 04.15         21.34GVEF085V00
     K24E05S  C2024 03 11.42437910 12 30.128+28 22 08.83         22.07GVEF085V00
     K24E05S  C2024 03 11.42999110 12 29.923+28 22 13.22         21.57GVEF085V00
     K24E05S 1C2024 03 13.22117 10 12 06.61 +28 54 23.8          21.1 GVEF085G96
     K24E05S 1C2024 03 13.22634 10 12 06.32 +28 54 30.3          20.5 GVEF085G96
     K24E05S  C2024 03 25.93587 10 26 00.10 +60 50 50.3          16.9 GVEF085K88
     K24E05S  C2024 03 25.93682 10 26 00.82 +60 52 06.3          16.7 GVEF085K88
     K24E05S  C2024 03 25.93776 10 26 01.56 +60 53 20.5          16.5 GVEF085K88
     K24E05S  C2024 03 25.93870 10 26 02.33 +60 54 36.5          16.7 GVEF085K88
     K24E05S KC2024 03 25.95068610 26 11.97 +61 10 41.7          17.1 RoEF085K88
     K24E05S KC2024 03 25.95145010 26 12.61 +61 11 43.4          16.9 RoEF085K88
     K24E05S KC2024 03 25.95221910 26 13.25 +61 12 45.9          17.0 RoEF085K88
     K24E05S KC2024 03 25.95298610 26 13.88 +61 13 48.4          17.1 RoEF085K88
     K24E05S KC2024 03 25.95375010 26 14.58 +61 14 50.3          16.8 RoEF085K88
     K24E05S KC2024 03 25.97170410 26 42.45 +61 39 07.9          16.6 GVEF085G34
     K24E05S KC2024 03 25.97276210 26 43.45 +61 40 34.8          16.3 GVEF085G34
     K24E05S KC2024 03 25.97593610 26 46.40 +61 44 59.4          17.0 GVEF085G34
     K24E05S KC2024 03 25.97656510 26 34.94 +61 45 59.3          16.8 RoEF085K88
     K24E05S KC2024 03 25.97699410 26 47.50 +61 46 27.5          16.7 GVEF085G34
     K24E05S KC2024 03 25.97732910 26 35.69 +61 47 02.4          16.7 RoEF085K88
     K24E05S KC2024 03 25.97805010 26 48.48 +61 47 54.7          16.2 GVEF085G34
     K24E05S KC2024 03 25.97809310 26 36.38 +61 48 05.8          16.7 RoEF085K88
     K24E05S KC2024 03 25.97885810 26 37.13 +61 49 08.9          16.9 RoEF085K88
     K24E05S KC2024 03 25.97910610 26 49.52 +61 49 22.4          16.9 GVEF085G34
     K24E05S KC2024 03 25.97962310 26 37.83 +61 50 12.7          17.2 RoEF085K88
     K24E05S KC2024 03 25.98016010 26 50.58 +61 50 51.2          17.1 GVEF085G34
     K24E05S KC2024 03 25.98121610 26 51.54 +61 52 18.3          17.2 GVEF085G34
     K24E05S KC2024 03 26.00802910 27 19.46 +62 30 06.6          16.2 GVEF085G34
     K24E05S KC2024 03 26.01043110 27 22.28 +62 33 34.2          16.7 GVEF085G34
     K24E05S KC2024 03 26.03370710 27 38.51 +63 06 55.4          17.0 RoEF085K88
     K24E05S KC2024 03 26.03472610 27 39.81 +63 08 25.0          17.2 RoEF085K88
     K24E05S KC2024 03 26.03574610 27 41.18 +63 09 54.2          16.8 RoEF085K88
     K24E05S KC2024 03 26.03677010 27 42.54 +63 11 23.8          16.5 RoEF085K88
     K24E05S KC2024 03 26.03779010 27 43.90 +63 12 53.4          17.3 RoEF085K88
     K24E05S KC2024 03 26.10614110 29 35.11 +64 56 25.1          16.5 RoEF085K88
     K24E05S KC2024 03 26.10716110 29 37.12 +64 58 01.5          17.1 RoEF085K88
     K24E05S KC2024 03 26.10818310 29 39.09 +64 59 36.9          17.9 RoEF085K88
     K24E05S KC2024 03 26.10920410 29 41.20 +65 01 14.6          17.2 RoEF085K88
     K24E05S KC2024 03 26.11022510 29 43.24 +65 02 51.2          16.9 RoEF085K88
     K24E05S KB2024 03 26.16455210 31 51.336+66 33 17.93         16.4 GXEF085K74
     K24E05S KB2024 03 26.16725110 31 58.397+66 37 51.71         16.5 GXEF085K74
     K24E05S KB2024 03 26.16993110 32 05.414+66 42 24.30         16.5 GXEF085K74
     K24E05S KB2024 03 26.17025210 32 06.259+66 42 57.31         16.3 GXEF085K74
     K24E05S KB2024 03 26.17326910 32 14.222+66 48 05.15         16.7 GXEF085K74

Observer details:
G34 Oberfrauendorf.  Observer T. Felber.  Measurers T. Felber, T. Felber.
    0.35-m f/6.3 Schmidt-Cassegrain + CCD.
G96 Mt. Lemmon Survey.  Observer J. K. Hogan.  Measurers B. Gray, D. Rankin,
    F. C. Shelly, J. K. Hogan.  1.5-m reflector + 10K CCD.
K74 Muensterschwarzach Observatory, Schwarzach.  Observer C. Gerhard.
    Measurers C. Gerhard, C. Gerhard.  0.30-m f/3.75 reflector + CMO.
K88 GINOP-KHK, Piszkesteto.  Observer K. Sarneczky.  Measurers K.
    Sarneczky, K. Sarneczky.  0.60-m Schmidt + CCD.
V00 Kitt Peak-Bok.  Observer M. J. Brucker.  Measurers M. J. Brucker, C. E.
    Woodward, T. Beuden, V. F. Carvajal, D. Fay, J. B. Fazekas, D. C. Fuls, A.
    R. Gibbs, H. Groeller, J. K. Hogan, R. A. Kowalski, S. M. Larson, C.
    Lejoly, G. J. Leonard, R. A. Mastaler, R. S. McMillan, D. Rankin, R. L.
    Seaman, F. C. Shelly, K. W. Wierzchos, M. J. Brucker.  2.25-m reflector +
    4x4K mosaic CCD.

Orbital elements:
2024 ES5                                                 Earth MOID = 0.0048 AU
Epoch 2024 Mar. 31.0 TT = JDT 2460400.5                 Bell                    
M 354.15185              (2000.0)            P               Q                  
n   0.30780954     Peri.  205.67082     -0.80846276     +0.58842236             
a   2.1724410      Node    10.40037     -0.52774424     -0.71566424             
e   0.5629184      Incl.    3.85220     -0.26052635     -0.37627625             
P   3.20           H   25.30          G   0.15           U   8                  
Residuals in seconds of arc
240311 V00  0.0   0.0     240325 G34  0.0   1.1+    240326 K88  0.0   0.5-
240311 V00  0.1+  0.1-    240325 G34  0.0   0.3+    240326 K88  0.2-  0.0
240311 V00  0.1-  0.1+    240325 G34  0.3-  1.2+    240326 K88  0.0   0.0
240311 V00  0.1+  0.1+    240325 K88  0.0   0.1-    240326 K88  0.1+  0.1-
240313 G96  0.1-  0.2-    240325 G34  0.3+  1.2+    240326 K88  0.1+  0.1+
240313 G96  0.1+  0.0     240325 K88  0.2+  0.2-    240326 K88  0.1-  0.1-
240325 K88  0.1+  0.3-    240325 G34  0.1+  0.5+    240326 K88  0.1-  0.1+
240325 K88  0.0   0.3-    240325 K88  0.1-  0.1-    240326 K88  0.5-  1.0-
240325 K88  0.1+  1.2-    240325 K88  0.1+  0.5-    240326 K88  0.0   0.1+
240325 K88  0.3+  0.5-    240325 G34  0.2+  0.1+    240326 K88  0.0   0.1+
240325 K88  0.1-  0.3-    240325 K88  0.2-  0.1-    240326 K74  0.1-  0.4-
240325 K88  0.1-  0.5-    240325 G34  0.5+  0.9+    240326 K74  0.4+  0.1-
240325 K88  0.1-  0.2-    240325 G34  0.0   0.2-    240326 K74  0.4+  0.2+
240325 K88  0.2-  0.1+    240326 G34  0.6-  1.0-    240326 K74  0.3+  0.4+
240325 K88  0.3+  0.1+    240326 G34  0.2+  0.6+    240326 K74  0.2-  0.5+

Ephemeris:
2024 ES5                 a,e,i = 2.17, 0.56, 4                   q = 0.9495
Date    TT    R. A. (2000) Decl.     Delta      r    Elong.  Phase     V
2024 02 25    10 17 37.5 +25 14 08   0.1905  1.1739   164.0    13.4    22.8
...
2024 03 11    10 12 43.1 +28 15 36   0.09458 1.0764   150.0    27.5    21.6
...
2024 03 19    10 11 15.0 +31 40 17   0.04748 1.0326   140.5    37.9    20.3
...
2024 03 25    10 16 53.0 +47 16 22   0.01325 1.0048   124.4    55.0    17.9
2024 03 26    10 28 13.3 +62 16 21   0.0081111.0006   112.1    67.4    17.2
2024 03 27    21 19 27.3 +71 55 20   0.0048480.9966    75.1   104.7    17.6
...
2024 04 02    22 07 26.7 -18 35 00   0.03452 0.9757    45.5   133.1    24.0
...
2024 04 10    22 11 31.9 -22 50 20   0.08094 0.9570    54.4   121.7    24.7
...
2024 04 25    22 21 33.0 -23 24 46   0.1670  0.9529    66.9   103.8    25.1

M. P. C. Staff               (C) Copyright 2024 MPC           M.P.E.C. 2024-F85





More information about the Iaude mailing list